User: anonymous   Login
Location: Caltech
(34.1382°N, 118.1253°W)
Time: 16:49:05
(UTC-07:00)
Language:

Cosmos 1939 Rocket - Orbit

View from above orbital plane
View from above orbital plane
View from above satellite
View from above satellite

Ground track
Ground track

The orbit data is extracted from the following two-line orbital elements,

1 19046U 88032B   15243.15550423  .00001207  00000-0  96481-4 0  9993
2 19046 097.6309 294.3493 0043082 048.8393 311.6535 15.01406560474177
Epoch (UTC): 31 August 2015 03:43:55
Eccentricity: 0.0043082
inclination: 97.6309°
perigee height: 532 km
apogee height: 592 km
right ascension of ascending node: 294.3493°
argument of perigee: 48.8393°
revolutions per day: 15.01406560
mean anomaly at epoch: 311.6535°
orbit number at epoch: 47417

The dashed part of the orbit path shows where the satellite is in the earth's shadow,  

DLR